Location: Chimay
(50.0486°N, 4.3171°E)
Time: 21:08:54
(UTC+00:00)

SL-16 R/B - Pass Details

Date: 08 August 2020
Orbit: 843 x 845 km, 71.0° (Epoch: 22 September)

Event Time Altitude Azimuth Distance (km) Brightness Sun altitude
Rises 21:33:07 0° 331° (NNW) 3,417 7.1 -17.7°
Reaches altitude 10° 21:35:35 10° 334° (NNW) 2,478 5.9 -18.0°
Maximum altitude 21:41:16 70° 58° (ENE) 901 2.3 -18.5°
Enters shadow 21:43:55 33° 134° (SE) 1,402 2.8 -18.7°
